contact:dominique.lefevre@mio.osupytheas.fr, maurice.libes@osupytheas.fr, didier.mallarino@osupytheas.fr
Project:EMSO http://www.emso-fr.org/EMSO-France
Depth: 2436.0 m
Title:EMSO Ligure Ouest : Data MII capteur MICROCAT
DateTime_Computer,Latitude,Longitude,Temperature,Conductivity,Pressure,DateTime_Instrument
DateTime_Computer,Latitude,Longitude,degC,S m-1,dbar,DateTime_Instrument
2023-11-01T00:00:07Z,42.805,6.029,13.3057,4.60157,2470.777,2023-11-01T02:02:33Z
2023-11-01T00:03:10Z,42.805,6.029,13.3056,4.60181,2470.8,2023-11-01T02:05:36Z
2023-11-01T00:06:14Z,42.805,6.029,13.3058,4.60175,2470.763,2023-11-01T02:08:39Z
2023-11-01T00:09:17Z,42.805,6.029,13.3063,4.60162,2470.777,2023-11-01T02:11:43Z
2023-11-01T00:12:20Z,42.805,6.029,13.3064,4.60173,2470.74,2023-11-01T02:14:46Z
2023-11-01T00:15:23Z,42.805,6.029,13.3077,4.60137,2470.763,2023-11-01T02:17:49Z
2023-11-01T00:18:26Z,42.805,6.029,13.3097,4.60162,2470.8,2023-11-01T02:20:52Z
2023-11-01T00:21:29Z,42.805,6.029,13.3078,4.60184,2470.777,2023-11-01T02:23:55Z
2023-11-01T00:24:32Z,42.805,6.029,13.3070,4.60218,2470.763,2023-11-01T02:26:58Z
2023-11-01T00:27:35Z,42.805,6.029,13.3081,4.60194,2470.777,2023-11-01T02:30:01Z
2023-11-01T00:30:38Z,42.805,6.029,13.3096,4.60193,2470.717,2023-11-01T02:33:04Z
2023-11-01T00:33:41Z,42.805,6.029,13.3080,4.60119,2470.763,2023-11-01T02:36:07Z
2023-11-01T00:36:44Z,42.805,6.029,13.3057,4.60194,2470.717,2023-11-01T02:39:10Z
2023-11-01T00:39:47Z,42.805,6.029,13.3087,4.60182,2470.74,2023-11-01T02:42:13Z
2023-11-01T00:42:50Z,42.805,6.029,13.3106,4.60234,2470.777,2023-11-01T02:45:16Z
2023-11-01T00:45:54Z,42.805,6.029,13.3100,4.60213,2470.717,2023-11-01T02:48:20Z
2023-11-01T00:48:57Z,42.805,6.029,13.3085,4.60206,2470.74,2023-11-01T02:51:23Z
2023-11-01T00:52:00Z,42.805,6.029,13.3076,4.60205,2470.754,2023-11-01T02:54:26Z
2023-11-01T00:55:03Z,42.805,6.029,13.3108,4.60177,2470.726,2023-11-01T02:57:29Z
2023-11-01T00:58:06Z,42.805,6.029,13.3110,4.60187,2470.717,2023-11-01T03:00:32Z
2023-11-01T01:01:09Z,42.805,6.029,13.3058,4.60218,2470.717,2023-11-01T03:03:35Z
2023-11-01T01:04:12Z,42.805,6.029,13.3080,4.60126,2470.763,2023-11-01T03:06:38Z
2023-11-01T01:07:15Z,42.805,6.029,13.3087,4.60167,2470.717,2023-11-01T03:09:41Z
2023-11-01T01:10:18Z,42.805,6.029,13.3063,4.60158,2470.754,2023-11-01T03:12:44Z
2023-11-01T01:13:21Z,42.805,6.029,13.3070,4.60218,2470.693,2023-11-01T03:15:47Z
2023-11-01T01:16:24Z,42.805,6.029,13.3066,4.60210,2470.74,2023-11-01T03:18:50Z
2023-11-01T01:19:27Z,42.805,6.029,13.3076,4.60173,2470.717,2023-11-01T03:21:53Z
2023-11-01T01:22:30Z,42.805,6.029,13.3050,4.60218,2470.73,2023-11-01T03:24:56Z
2023-11-01T01:25:34Z,42.805,6.029,13.3086,4.60175,2470.74,2023-11-01T03:28:00Z
2023-11-01T01:28:37Z,42.805,6.029,13.3096,4.60180,2470.717,2023-11-01T03:31:03Z
2023-11-01T01:31:40Z,42.805,6.029,13.3051,4.60178,2470.693,2023-11-01T03:34:06Z
2023-11-01T01:34:43Z,42.805,6.029,13.3089,4.60147,2470.73,2023-11-01T03:37:09Z
2023-11-01T01:37:46Z,42.805,6.029,13.3092,4.60234,2470.73,2023-11-01T03:40:12Z
2023-11-01T01:40:49Z,42.805,6.029,13.3078,4.60155,2470.754,2023-11-01T03:43:15Z
2023-11-01T01:43:52Z,42.805,6.029,13.3069,4.60184,2470.754,2023-11-01T03:46:18Z
2023-11-01T01:46:55Z,42.805,6.029,13.3061,4.60189,2470.707,2023-11-01T03:49:21Z
2023-11-01T01:49:58Z,42.805,6.029,13.3077,4.60185,2470.73,2023-11-01T03:52:24Z
2023-11-01T01:53:01Z,42.805,6.029,13.3058,4.60184,2470.693,2023-11-01T03:55:27Z
2023-11-01T01:56:04Z,42.805,6.029,13.3078,4.60165,2470.73,2023-11-01T03:58:30Z
2023-11-01T01:59:07Z,42.805,6.029,13.3059,4.60180,2470.717,2023-11-01T04:01:33Z
2023-11-01T02:02:10Z,42.805,6.029,13.3069,4.60200,2470.693,2023-11-01T04:04:36Z
2023-11-01T02:05:14Z,42.805,6.029,13.3076,4.60162,2470.67,2023-11-01T04:07:40Z
2023-11-01T02:08:17Z,42.805,6.029,13.3113,4.60188,2470.707,2023-11-01T04:10:43Z
2023-11-01T02:11:20Z,42.805,6.029,13.3078,4.60169,2470.754,2023-11-01T04:13:46Z
2023-11-01T02:14:23Z,42.805,6.029,13.3063,4.60178,2470.693,2023-11-01T04:16:49Z
2023-11-01T02:17:26Z,42.805,6.029,13.3056,4.60215,2470.754,2023-11-01T04:19:52Z
2023-11-01T02:20:29Z,42.805,6.029,13.3068,4.60183,2470.717,2023-11-01T04:22:55Z
2023-11-01T02:23:32Z,42.805,6.029,13.3074,4.60167,2470.693,2023-11-01T04:25:58Z
2023-11-01T02:26:35Z,42.805,6.029,13.3069,4.60142,2470.717,2023-11-01T04:29:01Z
2023-11-01T02:29:38Z,42.805,6.029,13.3064,4.60151,2470.73,2023-11-01T04:32:04Z
2023-11-01T02:32:41Z,42.805,6.029,13.3069,4.60137,2470.693,2023-11-01T04:35:07Z
2023-11-01T02:35:44Z,42.805,6.029,13.3071,4.60188,2470.73,2023-11-01T04:38:10Z
2023-11-01T02:38:47Z,42.805,6.029,13.3073,4.60154,2470.73,2023-11-01T04:41:13Z
2023-11-01T02:41:50Z,42.805,6.029,13.3094,4.60190,2470.73,2023-11-01T04:44:16Z
2023-11-01T02:44:54Z,42.805,6.029,13.3094,4.60181,2470.717,2023-11-01T04:47:20Z
2023-11-01T02:47:57Z,42.805,6.029,13.3045,4.60138,2470.693,2023-11-01T04:50:23Z
2023-11-01T02:51:00Z,42.805,6.029,13.3045,4.60154,2470.717,2023-11-01T04:53:26Z
2023-11-01T02:54:03Z,42.805,6.029,13.3040,4.60167,2470.717,2023-11-01T04:56:29Z
2023-11-01T02:57:06Z,42.805,6.029,13.3069,4.60175,2470.73,2023-11-01T04:59:32Z
2023-11-01T03:00:09Z,42.805,6.029,13.3063,4.60173,2470.717,2023-11-01T05:02:35Z
2023-11-01T03:03:12Z,42.805,6.029,13.3084,4.60155,2470.717,2023-11-01T05:05:38Z
2023-11-01T03:06:15Z,42.805,6.029,13.3095,4.60186,2470.707,2023-11-01T05:08:41Z
2023-11-01T03:09:18Z,42.805,6.029,13.3062,4.60185,2470.73,2023-11-01T05:11:44Z
2023-11-01T03:12:21Z,42.805,6.029,13.3074,4.60179,2470.74,2023-11-01T05:14:47Z
2023-11-01T03:15:24Z,42.805,6.029,13.3082,4.60169,2470.73,2023-11-01T05:17:50Z
2023-11-01T03:18:27Z,42.805,6.029,13.3093,4.60185,2470.717,2023-11-01T05:20:53Z
2023-11-01T03:21:31Z,42.805,6.029,13.3082,4.60188,2470.693,2023-11-01T05:23:57Z
2023-11-01T03:24:34Z,42.805,6.029,13.3085,4.60164,2470.693,2023-11-01T05:27:00Z
2023-11-01T03:27:37Z,42.805,6.029,13.3089,4.60217,2470.717,2023-11-01T05:30:03Z
2023-11-01T03:30:40Z,42.805,6.029,13.3086,4.60210,2470.693,2023-11-01T05:33:06Z
2023-11-01T03:33:43Z,42.805,6.029,13.3070,4.60183,2470.717,2023-11-01T05:36:09Z
2023-11-01T03:36:46Z,42.805,6.029,13.3082,4.60195,2470.717,2023-11-01T05:39:12Z
2023-11-01T03:39:49Z,42.805,6.029,13.3082,4.60182,2470.707,2023-11-01T05:42:15Z
2023-11-01T03:42:52Z,42.805,6.029,13.3106,4.60144,2470.707,2023-11-01T05:45:18Z
2023-11-01T03:45:55Z,42.805,6.029,13.3073,4.60203,2470.707,2023-11-01T05:48:21Z
2023-11-01T03:48:58Z,42.805,6.029,13.3098,4.60196,2470.693,2023-11-01T05:51:24Z
2023-11-01T03:52:01Z,42.805,6.029,13.3093,4.60178,2470.693,2023-11-01T05:54:27Z
2023-11-01T03:55:04Z,42.805,6.029,13.3085,4.60156,2470.707,2023-11-01T05:57:30Z
2023-11-01T03:58:07Z,42.805,6.029,13.3073,4.60200,2470.707,2023-11-01T06:00:33Z
2023-11-01T04:01:11Z,42.805,6.029,13.3046,4.60180,2470.693,2023-11-01T06:03:36Z
2023-11-01T04:04:14Z,42.805,6.029,13.3069,4.60178,2470.73,2023-11-01T06:06:40Z
2023-11-01T04:07:17Z,42.805,6.029,13.3104,4.60233,2470.74,2023-11-01T06:09:43Z
2023-11-01T04:10:20Z,42.805,6.029,13.3104,4.60196,2470.67,2023-11-01T06:12:46Z
2023-11-01T04:13:23Z,42.805,6.029,13.3098,4.60191,2470.73,2023-11-01T06:15:49Z
2023-11-01T04:16:26Z,42.805,6.029,13.3067,4.60217,2470.74,2023-11-01T06:18:52Z
2023-11-01T04:19:29Z,42.805,6.029,13.3096,4.60165,2470.73,2023-11-01T06:21:55Z
2023-11-01T04:22:32Z,42.805,6.029,13.3106,4.60178,2470.74,2023-11-01T06:24:58Z
2023-11-01T04:25:35Z,42.805,6.029,13.3068,4.60160,2470.73,2023-11-01T06:28:01Z
2023-11-01T04:28:38Z,42.805,6.029,13.3069,4.60142,2470.717,2023-11-01T06:31:04Z
2023-11-01T04:31:41Z,42.805,6.029,13.3073,4.60165,2470.74,2023-11-01T06:34:07Z
2023-11-01T04:34:44Z,42.805,6.029,13.3093,4.60181,2470.717,2023-11-01T06:37:10Z
2023-11-01T04:37:47Z,42.805,6.029,13.3066,4.60208,2470.73,2023-11-01T06:40:13Z
2023-11-01T04:40:51Z,42.805,6.029,13.3073,4.60178,2470.73,2023-11-01T06:43:17Z
2023-11-01T04:43:54Z,42.805,6.029,13.3076,4.60182,2470.74,2023-11-01T06:46:20Z
2023-11-01T04:46:57Z,42.805,6.029,13.3084,4.60162,2470.693,2023-11-01T06:49:23Z
2023-11-01T04:50:00Z,42.805,6.029,13.3075,4.60200,2470.717,2023-11-01T06:52:26Z
2023-11-01T04:53:03Z,42.805,6.029,13.3058,4.60137,2470.74,2023-11-01T06:55:29Z
2023-11-01T04:56:06Z,42.805,6.029,13.3074,4.60176,2470.726,2023-11-01T06:58:32Z
2023-11-01T04:59:09Z,42.805,6.029,13.3083,4.60194,2470.763,2023-11-01T07:01:35Z
2023-11-01T05:02:12Z,42.805,6.029,13.3076,4.60141,2470.777,2023-11-01T07:04:38Z
2023-11-01T05:05:15Z,42.805,6.029,13.3077,4.60144,2470.754,2023-11-01T07:07:41Z
2023-11-01T05:08:18Z,42.805,6.029,13.3090,4.60144,2470.74,2023-11-01T07:10:44Z
2023-11-01T05:11:21Z,42.805,6.029,13.3073,4.60157,2470.763,2023-11-01T07:13:47Z
2023-11-01T05:14:24Z,42.805,6.029,13.3084,4.60159,2470.763,2023-11-01T07:16:50Z
2023-11-01T05:17:28Z,42.805,6.029,13.3084,4.60142,2470.717,2023-11-01T07:19:54Z
2023-11-01T05:20:31Z,42.805,6.029,13.3072,4.60148,2470.787,2023-11-01T07:22:57Z
2023-11-01T05:23:34Z,42.805,6.029,13.3058,4.60150,2470.763,2023-11-01T07:26:00Z
2023-11-01T05:26:37Z,42.805,6.029,13.3076,4.60161,2470.777,2023-11-01T07:29:03Z
2023-11-01T05:29:40Z,42.805,6.029,13.3085,4.60119,2470.74,2023-11-01T07:32:06Z
2023-11-01T05:32:43Z,42.805,6.029,13.3058,4.60147,2470.787,2023-11-01T07:35:09Z
2023-11-01T05:35:46Z,42.805,6.029,13.3070,4.60137,2470.777,2023-11-01T07:38:12Z
2023-11-01T05:38:49Z,42.805,6.029,13.3067,4.60137,2470.8,2023-11-01T07:41:15Z
2023-11-01T05:41:52Z,42.805,6.029,13.3076,4.60147,2470.763,2023-11-01T07:44:18Z
2023-11-01T05:44:55Z,42.805,6.029,13.3073,4.60129,2470.787,2023-11-01T07:47:21Z
2023-11-01T05:47:58Z,42.805,6.029,13.3064,4.60117,2470.777,2023-11-01T07:50:24Z
2023-11-01T05:51:01Z,42.805,6.029,13.3062,4.60138,2470.763,2023-11-01T07:53:27Z
2023-11-01T05:54:04Z,42.805,6.029,13.3067,4.60129,2470.787,2023-11-01T07:56:30Z
2023-11-01T05:57:08Z,42.805,6.029,13.3052,4.60114,2470.787,2023-11-01T07:59:34Z
2023-11-01T06:00:11Z,42.805,6.029,13.3075,4.60144,2470.787,2023-11-01T08:02:37Z
2023-11-01T06:03:14Z,42.805,6.029,13.3089,4.60129,2470.787,2023-11-01T08:05:40Z
2023-11-01T06:06:17Z,42.805,6.029,13.3082,4.60110,2470.81,2023-11-01T08:08:43Z
2023-11-01T06:09:20Z,42.805,6.029,13.3073,4.60146,2470.81,2023-11-01T08:11:46Z
2023-11-01T06:12:23Z,42.805,6.029,13.3078,4.60130,2470.847,2023-11-01T08:14:49Z
2023-11-01T06:15:26Z,42.805,6.029,13.3055,4.60160,2470.824,2023-11-01T08:17:52Z
2023-11-01T06:18:29Z,42.805,6.029,13.3069,4.60156,2470.81,2023-11-01T08:20:55Z
2023-11-01T06:21:32Z,42.805,6.029,13.3067,4.60124,2470.824,2023-11-01T08:23:58Z
2023-11-01T06:24:35Z,42.805,6.029,13.3069,4.60165,2470.857,2023-11-01T08:27:01Z
2023-11-01T06:27:38Z,42.805,6.029,13.3054,4.60161,2470.833,2023-11-01T08:30:04Z
2023-11-01T06:30:41Z,42.805,6.029,13.3089,4.60135,2470.833,2023-11-01T08:33:07Z
2023-11-01T06:33:45Z,42.805,6.029,13.3070,4.60154,2470.833,2023-11-01T08:36:10Z
2023-11-01T06:36:48Z,42.805,6.029,13.3058,4.60137,2470.847,2023-11-01T08:39:14Z
2023-11-01T06:39:51Z,42.805,6.029,13.3053,4.60121,2470.847,2023-11-01T08:42:17Z
2023-11-01T06:42:54Z,42.805,6.029,13.3050,4.60135,2470.871,2023-11-01T08:45:20Z
2023-11-01T06:45:57Z,42.805,6.029,13.3043,4.60165,2470.904,2023-11-01T08:48:23Z
2023-11-01T06:49:00Z,42.805,6.029,13.3058,4.60152,2470.88,2023-11-01T08:51:26Z
2023-11-01T06:52:03Z,42.805,6.029,13.3069,4.60181,2470.88,2023-11-01T08:54:29Z
2023-11-01T06:55:06Z,42.805,6.029,13.3093,4.60150,2470.904,2023-11-01T08:57:32Z
2023-11-01T06:58:09Z,42.805,6.029,13.3078,4.60152,2470.88,2023-11-01T09:00:35Z
2023-11-01T07:01:12Z,42.805,6.029,13.3061,4.60164,2470.88,2023-11-01T09:03:38Z
2023-11-01T07:04:15Z,42.805,6.029,13.3061,4.60157,2470.88,2023-11-01T09:06:41Z
2023-11-01T07:07:18Z,42.805,6.029,13.3082,4.60116,2470.88,2023-11-01T09:09:44Z
2023-11-01T07:10:21Z,42.805,6.029,13.3088,4.60166,2470.894,2023-11-01T09:12:47Z
2023-11-01T07:13:25Z,42.805,6.029,13.3087,4.60144,2470.88,2023-11-01T09:15:51Z
2023-11-01T07:16:28Z,42.805,6.029,13.3076,4.60134,2470.88,2023-11-01T09:18:54Z
2023-11-01T07:19:31Z,42.805,6.029,13.3077,4.60129,2470.904,2023-11-01T09:21:57Z
2023-11-01T07:22:34Z,42.805,6.029,13.3051,4.60144,2470.894,2023-11-01T09:25:00Z
2023-11-01T07:25:37Z,42.805,6.029,13.3050,4.60143,2470.917,2023-11-01T09:28:03Z
2023-11-01T07:28:40Z,42.805,6.029,13.3063,4.60121,2470.894,2023-11-01T09:31:06Z
2023-11-01T07:31:43Z,42.805,6.029,13.3110,4.60127,2470.927,2023-11-01T09:34:09Z
2023-11-01T07:34:46Z,42.805,6.029,13.3079,4.60144,2470.917,2023-11-01T09:37:12Z
2023-11-01T07:37:49Z,42.805,6.029,13.3080,4.60122,2470.917,2023-11-01T09:40:15Z
2023-11-01T07:40:52Z,42.805,6.029,13.3048,4.60158,2470.894,2023-11-01T09:43:18Z
2023-11-01T07:43:56Z,42.805,6.029,13.3079,4.60121,2470.927,2023-11-01T09:46:22Z
2023-11-01T07:46:59Z,42.805,6.029,13.3062,4.60140,2470.94,2023-11-01T09:49:25Z
2023-11-01T07:50:02Z,42.805,6.029,13.3073,4.60132,2470.917,2023-11-01T09:52:28Z
2023-11-01T07:53:05Z,42.805,6.029,13.3053,4.60157,2470.917,2023-11-01T09:55:31Z
2023-11-01T07:56:08Z,42.805,6.029,13.3062,4.60124,2470.927,2023-11-01T09:58:34Z
2023-11-01T07:59:11Z,42.805,6.029,13.3064,4.60166,2470.94,2023-11-01T10:01:37Z
2023-11-01T08:02:14Z,42.805,6.029,13.3056,4.60127,2470.904,2023-11-01T10:04:40Z
2023-11-01T08:05:17Z,42.805,6.029,13.3085,4.60139,2470.927,2023-11-01T10:07:43Z
2023-11-01T08:08:20Z,42.805,6.029,13.3052,4.60122,2470.927,2023-11-01T10:10:46Z
2023-11-01T08:11:23Z,42.805,6.029,13.3062,4.60165,2470.95,2023-11-01T10:13:49Z
2023-11-01T08:14:26Z,42.805,6.029,13.3068,4.60127,2470.94,2023-11-01T10:16:52Z
2023-11-01T08:17:29Z,42.805,6.029,13.3065,4.60123,2470.95,2023-11-01T10:19:55Z
2023-11-01T08:20:32Z,42.805,6.029,13.3055,4.60113,2470.95,2023-11-01T10:22:58Z
2023-11-01T08:23:36Z,42.805,6.029,13.3058,4.60132,2470.95,2023-11-01T10:26:02Z
2023-11-01T08:26:39Z,42.805,6.029,13.3072,4.60147,2470.94,2023-11-01T10:29:05Z
2023-11-01T08:29:42Z,42.805,6.029,13.3096,4.60148,2470.913,2023-11-01T10:32:08Z
2023-11-01T08:32:45Z,42.805,6.029,13.3087,4.60178,2470.964,2023-11-01T10:35:11Z
2023-11-01T08:35:48Z,42.805,6.029,13.3078,4.60159,2470.964,2023-11-01T10:38:14Z
2023-11-01T08:38:51Z,42.805,6.029,13.3089,4.60121,2470.95,2023-11-01T10:41:17Z
2023-11-01T08:41:54Z,42.805,6.029,13.3078,4.60126,2470.964,2023-11-01T10:44:20Z
2023-11-01T08:44:57Z,42.805,6.029,13.3070,4.60112,2470.964,2023-11-01T10:47:23Z
2023-11-01T08:48:00Z,42.805,6.029,13.3062,4.60167,2470.95,2023-11-01T10:50:26Z
2023-11-01T08:51:03Z,42.805,6.029,13.3061,4.60186,2470.964,2023-11-01T10:53:29Z
2023-11-01T08:54:06Z,42.805,6.029,13.3082,4.60198,2470.973,2023-11-01T10:56:32Z
2023-11-01T08:57:09Z,42.805,6.029,13.3065,4.60203,2470.973,2023-11-01T10:59:35Z
2023-11-01T09:00:13Z,42.805,6.029,13.3087,4.60191,2470.95,2023-11-01T11:02:39Z
2023-11-01T09:03:16Z,42.805,6.029,13.3109,4.60203,2470.987,2023-11-01T11:05:42Z
2023-11-01T09:06:19Z,42.805,6.029,13.3102,4.60175,2470.973,2023-11-01T11:08:45Z
2023-11-01T09:09:22Z,42.805,6.029,13.3096,4.60231,2470.927,2023-11-01T11:11:48Z
2023-11-01T09:12:25Z,42.805,6.029,13.3103,4.60203,2470.987,2023-11-01T11:14:51Z
2023-11-01T09:15:28Z,42.805,6.029,13.3106,4.60162,2470.964,2023-11-01T11:17:54Z
2023-11-01T09:18:31Z,42.805,6.029,13.3108,4.60181,2470.95,2023-11-01T11:20:57Z
2023-11-01T09:21:34Z,42.805,6.029,13.3103,4.60202,2470.973,2023-11-01T11:24:00Z
2023-11-01T09:24:37Z,42.805,6.029,13.3083,4.60190,2470.987,2023-11-01T11:27:03Z
2023-11-01T09:27:40Z,42.805,6.029,13.3084,4.60140,2470.973,2023-11-01T11:30:06Z
2023-11-01T09:30:42Z,42.805,6.029,13.3085,4.60188,2470.964,2023-11-01T11:33:08Z
2023-11-01T09:33:45Z,42.805,6.029,13.3091,4.60183,2470.973,2023-11-01T11:36:11Z
2023-11-01T09:36:48Z,42.805,6.029,13.3089,4.60223,2470.987,2023-11-01T11:39:14Z
2023-11-01T09:39:51Z,42.805,6.029,13.3079,4.60195,2470.973,2023-11-01T11:42:17Z
2023-11-01T09:42:54Z,42.805,6.029,13.3077,4.60225,2470.978,2023-11-01T11:45:20Z
2023-11-01T09:45:58Z,42.805,6.029,13.3056,4.60190,2470.95,2023-11-01T11:48:24Z
2023-11-01T09:49:01Z,42.805,6.029,13.3075,4.60177,2470.95,2023-11-01T11:51:27Z
2023-11-01T09:52:04Z,42.805,6.029,13.3076,4.60202,2470.987,2023-11-01T11:54:30Z
2023-11-01T09:55:07Z,42.805,6.029,13.3065,4.60178,2470.987,2023-11-01T11:57:33Z
2023-11-01T09:58:10Z,42.805,6.029,13.3064,4.60196,2470.95,2023-11-01T12:00:36Z
2023-11-01T10:01:13Z,42.805,6.029,13.3090,4.60226,2470.973,2023-11-01T12:03:39Z
2023-11-01T10:04:16Z,42.805,6.029,13.3085,4.60207,2470.987,2023-11-01T12:06:42Z
2023-11-01T10:07:19Z,42.805,6.029,13.3078,4.60200,2470.973,2023-11-01T12:09:45Z
2023-11-01T10:10:22Z,42.805,6.029,13.3082,4.60201,2470.973,2023-11-01T12:12:48Z
2023-11-01T10:13:25Z,42.805,6.029,13.3084,4.60213,2470.973,2023-11-01T12:15:51Z
2023-11-01T10:16:28Z,42.805,6.029,13.3071,4.60160,2470.973,2023-11-01T12:18:54Z
2023-11-01T10:19:31Z,42.805,6.029,13.3059,4.60183,2470.964,2023-11-01T12:21:57Z
2023-11-01T10:22:35Z,42.805,6.029,13.3055,4.60173,2470.964,2023-11-01T12:25:01Z
2023-11-01T10:25:38Z,42.805,6.029,13.3102,4.60138,2470.964,2023-11-01T12:28:04Z
2023-11-01T10:28:41Z,42.805,6.029,13.3070,4.60192,2470.927,2023-11-01T12:31:07Z
2023-11-01T10:31:44Z,42.805,6.029,13.3080,4.60175,2470.95,2023-11-01T12:34:10Z
2023-11-01T10:34:47Z,42.805,6.029,13.3081,4.60175,2470.987,2023-11-01T12:37:13Z
2023-11-01T10:37:50Z,42.805,6.029,13.3059,4.60190,2470.94,2023-11-01T12:40:16Z
2023-11-01T10:40:53Z,42.805,6.029,13.3073,4.60177,2470.917,2023-11-01T12:43:19Z
2023-11-01T10:43:56Z,42.805,6.029,13.3080,4.60163,2470.964,2023-11-01T12:46:22Z
2023-11-01T10:46:59Z,42.805,6.029,13.3060,4.60162,2470.94,2023-11-01T12:49:25Z
2023-11-01T10:50:02Z,42.805,6.029,13.3048,4.60173,2470.94,2023-11-01T12:52:28Z
2023-11-01T10:53:05Z,42.805,6.029,13.3074,4.60207,2470.95,2023-11-01T12:55:31Z
2023-11-01T10:56:08Z,42.805,6.029,13.3079,4.60183,2470.94,2023-11-01T12:58:34Z
2023-11-01T10:59:12Z,42.805,6.029,13.3101,4.60175,2470.88,2023-11-01T13:01:38Z
2023-11-01T11:02:15Z,42.805,6.029,13.3061,4.60188,2470.927,2023-11-01T13:04:41Z
2023-11-01T11:05:18Z,42.805,6.029,13.3070,4.60143,2470.95,2023-11-01T13:07:44Z
2023-11-01T11:08:21Z,42.805,6.029,13.3075,4.60178,2470.95,2023-11-01T13:10:47Z
2023-11-01T11:11:24Z,42.805,6.029,13.3091,4.60170,2470.964,2023-11-01T13:13:50Z
2023-11-01T11:14:27Z,42.805,6.029,13.3082,4.60196,2470.917,2023-11-01T13:16:53Z
2023-11-01T11:17:30Z,42.805,6.029,13.3082,4.60192,2470.927,2023-11-01T13:19:56Z
2023-11-01T11:20:33Z,42.805,6.029,13.3093,4.60160,2470.904,2023-11-01T13:22:59Z
2023-11-01T11:23:36Z,42.805,6.029,13.3073,4.60195,2470.94,2023-11-01T13:26:02Z
2023-11-01T11:26:39Z,42.805,6.029,13.3089,4.60175,2470.927,2023-11-01T13:29:05Z
2023-11-01T11:29:42Z,42.805,6.029,13.3081,4.60165,2470.904,2023-11-01T13:32:08Z
2023-11-01T11:32:45Z,42.805,6.029,13.3062,4.60174,2470.894,2023-11-01T13:35:11Z
2023-11-01T11:35:49Z,42.805,6.029,13.3072,4.60181,2470.894,2023-11-01T13:38:15Z
2023-11-01T11:38:52Z,42.805,6.029,13.3072,4.60174,2470.927,2023-11-01T13:41:18Z
2023-11-01T11:41:55Z,42.805,6.029,13.3058,4.60131,2470.904,2023-11-01T13:44:21Z
2023-11-01T11:44:58Z,42.805,6.029,13.3085,4.60188,2470.88,2023-11-01T13:47:24Z
2023-11-01T11:48:01Z,42.805,6.029,13.3061,4.60218,2470.904,2023-11-01T13:50:27Z
2023-11-01T11:51:04Z,42.805,6.029,13.3073,4.60195,2470.917,2023-11-01T13:53:30Z
2023-11-01T11:54:07Z,42.805,6.029,13.3085,4.60173,2470.894,2023-11-01T13:56:33Z
2023-11-01T11:57:10Z,42.805,6.029,13.3078,4.60173,2470.94,2023-11-01T13:59:36Z
2023-11-01T12:00:13Z,42.805,6.029,13.3096,4.60197,2470.88,2023-11-01T14:02:39Z
2023-11-01T12:03:16Z,42.805,6.029,13.3048,4.60221,2470.904,2023-11-01T14:05:42Z
2023-11-01T12:06:19Z,42.805,6.029,13.3083,4.60175,2470.904,2023-11-01T14:08:45Z
2023-11-01T12:09:23Z,42.805,6.029,13.3069,4.60190,2470.857,2023-11-01T14:11:49Z
2023-11-01T12:12:26Z,42.805,6.029,13.3078,4.60200,2470.904,2023-11-01T14:14:52Z
2023-11-01T12:15:29Z,42.805,6.029,13.3067,4.60175,2470.894,2023-11-01T14:17:55Z
2023-11-01T12:18:32Z,42.805,6.029,13.3056,4.60180,2470.88,2023-11-01T14:20:58Z
2023-11-01T12:21:35Z,42.805,6.029,13.3059,4.60185,2470.88,2023-11-01T14:24:01Z
2023-11-01T12:24:38Z,42.805,6.029,13.3049,4.60169,2470.894,2023-11-01T14:27:04Z
2023-11-01T12:27:41Z,42.805,6.029,13.3061,4.60209,2470.904,2023-11-01T14:30:07Z
2023-11-01T12:30:44Z,42.805,6.029,13.3066,4.60150,2470.927,2023-11-01T14:33:10Z
2023-11-01T12:33:47Z,42.805,6.029,13.3070,4.60174,2470.904,2023-11-01T14:36:13Z
2023-11-01T12:36:50Z,42.805,6.029,13.3085,4.60173,2470.894,2023-11-01T14:39:16Z
2023-11-01T12:39:53Z,42.805,6.029,13.3079,4.60193,2470.88,2023-11-01T14:42:19Z
2023-11-01T12:42:56Z,42.805,6.029,13.3056,4.60192,2470.833,2023-11-01T14:45:22Z
2023-11-01T12:45:59Z,42.805,6.029,13.3094,4.60202,2470.88,2023-11-01T14:48:25Z
2023-11-01T12:49:03Z,42.805,6.029,13.3076,4.60166,2470.88,2023-11-01T14:51:29Z
2023-11-01T12:52:06Z,42.805,6.029,13.3039,4.60164,2470.917,2023-11-01T14:54:32Z
2023-11-01T12:55:09Z,42.805,6.029,13.3036,4.60187,2470.894,2023-11-01T14:57:35Z
2023-11-01T12:58:12Z,42.805,6.029,13.3065,4.60197,2470.894,2023-11-01T15:00:38Z
2023-11-01T13:01:15Z,42.805,6.029,13.3061,4.60170,2470.88,2023-11-01T15:03:41Z
2023-11-01T13:04:18Z,42.805,6.029,13.3058,4.60179,2470.904,2023-11-01T15:06:44Z
2023-11-01T13:07:21Z,42.805,6.029,13.3054,4.60157,2470.871,2023-11-01T15:09:47Z
2023-11-01T13:10:24Z,42.805,6.029,13.3089,4.60169,2470.88,2023-11-01T15:12:50Z
2023-11-01T13:13:27Z,42.805,6.029,13.3093,4.60189,2470.871,2023-11-01T15:15:53Z
2023-11-01T13:16:30Z,42.805,6.029,13.3068,4.60155,2470.871,2023-11-01T15:18:56Z
2023-11-01T13:19:33Z,42.805,6.029,13.3057,4.60167,2470.88,2023-11-01T15:21:59Z
2023-11-01T13:22:36Z,42.805,6.029,13.3056,4.60192,2470.871,2023-11-01T15:25:02Z
2023-11-01T13:25:40Z,42.805,6.029,13.3056,4.60200,2470.871,2023-11-01T15:28:06Z
2023-11-01T13:28:43Z,42.805,6.029,13.3073,4.60173,2470.857,2023-11-01T15:31:09Z
2023-11-01T13:31:46Z,42.805,6.029,13.3070,4.60149,2470.88,2023-11-01T15:34:12Z
2023-11-01T13:34:49Z,42.805,6.029,13.3058,4.60152,2470.857,2023-11-01T15:37:15Z
2023-11-01T13:37:52Z,42.805,6.029,13.3048,4.60140,2470.847,2023-11-01T15:40:18Z
2023-11-01T13:40:55Z,42.805,6.029,13.3055,4.60161,2470.88,2023-11-01T15:43:21Z
2023-11-01T13:43:58Z,42.805,6.029,13.3054,4.60175,2470.833,2023-11-01T15:46:24Z
2023-11-01T13:47:01Z,42.805,6.029,13.3065,4.60165,2470.847,2023-11-01T15:49:27Z
2023-11-01T13:50:04Z,42.805,6.029,13.3061,4.60178,2470.833,2023-11-01T15:52:30Z
2023-11-01T13:53:07Z,42.805,6.029,13.3070,4.60186,2470.857,2023-11-01T15:55:33Z
2023-11-01T13:56:10Z,42.805,6.029,13.3085,4.60169,2470.833,2023-11-01T15:58:36Z
2023-11-01T13:59:13Z,42.805,6.029,13.3072,4.60185,2470.833,2023-11-01T16:01:39Z
2023-11-01T14:02:17Z,42.805,6.029,13.3066,4.60131,2470.833,2023-11-01T16:04:43Z
2023-11-01T14:05:20Z,42.805,6.029,13.3056,4.60166,2470.857,2023-11-01T16:07:46Z
2023-11-01T14:08:23Z,42.805,6.029,13.3074,4.60190,2470.833,2023-11-01T16:10:49Z
2023-11-01T14:11:26Z,42.805,6.029,13.3089,4.60214,2470.833,2023-11-01T16:13:52Z
2023-11-01T14:14:29Z,42.805,6.029,13.3086,4.60174,2470.847,2023-11-01T16:16:55Z
2023-11-01T14:17:32Z,42.805,6.029,13.3089,4.60233,2470.787,2023-11-01T16:19:58Z
2023-11-01T14:20:35Z,42.805,6.029,13.3093,4.60196,2470.824,2023-11-01T16:23:01Z
2023-11-01T14:23:38Z,42.805,6.029,13.3096,4.60170,2470.833,2023-11-01T16:26:04Z
2023-11-01T14:26:41Z,42.805,6.029,13.3093,4.60169,2470.81,2023-11-01T16:29:07Z
2023-11-01T14:29:44Z,42.805,6.029,13.3092,4.60153,2470.824,2023-11-01T16:32:10Z
2023-11-01T14:32:47Z,42.805,6.029,13.3103,4.60151,2470.847,2023-11-01T16:35:13Z
2023-11-01T14:35:50Z,42.805,6.029,13.3088,4.60147,2470.81,2023-11-01T16:38:16Z
2023-11-01T14:38:54Z,42.805,6.029,13.3111,4.60147,2470.833,2023-11-01T16:41:20Z
2023-11-01T14:41:57Z,42.805,6.029,13.3096,4.60165,2470.833,2023-11-01T16:44:23Z
2023-11-01T14:45:00Z,42.805,6.029,13.3114,4.60132,2470.824,2023-11-01T16:47:26Z
2023-11-01T14:48:03Z,42.805,6.029,13.3047,4.60162,2470.833,2023-11-01T16:50:29Z
2023-11-01T14:51:06Z,42.805,6.029,13.3064,4.60155,2470.81,2023-11-01T16:53:32Z
2023-11-01T14:54:09Z,42.805,6.029,13.3070,4.60145,2470.824,2023-11-01T16:56:35Z
2023-11-01T14:57:12Z,42.805,6.029,13.3060,4.60135,2470.833,2023-11-01T16:59:38Z
2023-11-01T15:00:15Z,42.805,6.029,13.3049,4.60119,2470.81,2023-11-01T17:02:41Z